Home > Time Zones > World Clock > Weather > Chad > Sarh > Past weeks

Flag for Chad Weather past 2 weeks in Sarh, Chad

Now
84 °F

Clear.


Feels Like: 92 °F
Forecast: 73 / 84 °F
Wind: No wind

Location: Sarh Airport

Current Time: Aug 30, 2015 at 7:41:03 PM

Latest Report: Aug 30, 2015 at 7:00 PM


Visibility: 10 mi

Pressure: 29.89 "Hg

Humidity: 74%

Dew point: 75 °F

Location of SarhLocation

Historic Weather in Sarh — Graph

°F

Sarh temperature yesterday

Maximum temperature yesterday: 82 °F (at 11:00 AM)
Minimum temperature yesterday: 73 °F (at 12:00 AM)
Average temperature yesterday: 77 °F

Past Weeks' High & Low Weather Summary

 TemperatureHumidityPressure
High93 °F (Aug 20, 1:00 PM)100% (Aug 26, 8:00 AM)30.07 "Hg (Aug 26, 8:00 AM)
Low68 °F (Aug 26, 8:00 AM)49% (Aug 20, 1:00 PM)29.77 "Hg (Aug 22, 8:00 PM)
Average79 °F82%29.92 "Hg
* Reported Aug 15 6:00 PM — Aug 30 5:00 PM, Sarh, Weather by CustomWeather, © 2015

Note: Actual official high and low records may vary slightly from our data, if they occured in-between our weather recording intervals... More about our weather records

Advertising

Sarh weather history for previous 24 hours

 ConditionsComfort  
Time TempWeatherWind HumidityBarometerVisibility
5:00 PM
Sun, Aug 30
90 °FPassing clouds.No wind55%29.86 "HgN/A
1:00 PM88 °FScattered clouds.5 mph55%29.95 "HgN/A
12:00 PM86 °FScattered clouds.No wind62%29.98 "HgN/A
11:00 AM86 °FScattered clouds.No wind66%30.01 "HgN/A
10:00 AM84 °FScattered clouds.5 mph66%30.01 "HgN/A
9:00 AM81 °FPassing clouds.No wind79%30.01 "HgN/A
8:00 AM84 °FScattered clouds.7 mph70%30.01 "HgN/A
7:00 AM75 °FScattered clouds.No wind94%29.98 "HgN/A
6:00 AM73 °FSunny.No wind94%29.98 "Hg10 mi
3:00 AM75 °FClear.No wind94%29.95 "Hg10 mi
1:00 AM75 °FClear.No wind94%29.83 "Hg10 mi
12:00 AM77 °FClear.No wind89%30.01 "Hg10 mi
11:00 PM
Sat, Aug 29
75 °FClear.No wind94%30.04 "Hg10 mi
10:00 PM77 °FClear.No wind89%30.04 "Hg10 mi
9:00 PM77 °FClear.No wind89%30.01 "Hg10 mi
8:00 PM77 °FClear.No wind83%29.95 "Hg10 mi
7:00 PM79 °FClear.No wind79%29.92 "Hg10 mi
Weather by CustomWeather, © 2015

See weather overviewHow to use our weather pages